Location: Arthez
(43.0833°N, 0.2500°W)
Time: 03:53:58
(UTC+00:00)

Cosmos 1605 Rocket - Pass Details

Date: 23 October 2021
Orbit: 945 x 1005 km, 82.9° (Epoch: 27 November)

Event Time Altitude Azimuth Distance (km) Brightness Sun altitude
Rises 18:14:18 0° 173° (S) 3,655 7.0 -13.2°
Reaches altitude 10° 18:16:48 10° 170° (S) 2,721 6.3 -13.7°
Maximum altitude 18:22:55 59° 92° (E) 1,134 4.0 -14.8°
Drops below altitude 10° 18:29:09 10° 15° (NNE) 2,776 6.2 -15.9°
Sets 18:31:44 0° 12° (NNE) 3,735 6.9 -16.4°
